N7LK Weather Reports


Display with metric or nautical units.
time (UTC)temp
F
wind
direction
speed
MPH
gust
MPH
rain 1hr
in
rain 24hr
in
rain mn
in
humidity
%
barometer
mb
20260503202333 95 196 7.0 14.0 0.00 0.00 0.00 16 1006.9
20260503201335 94 162 3.0 11.0 0.00 0.00 0.00 17 1007.0
20260503200355 94 186 0.0 7.0 0.00 0.00 0.00 17 1007.3
20260503195333 93 109 4.0 17.0 0.00 0.00 0.00 17 1007.5
20260503194333 93 165 8.0 13.0 0.00 0.00 0.00 17 1007.6
20260503193332 93 176 6.0 14.0 0.00 0.00 0.00 19 1007.7
20260503192335 93 114 3.0 16.0 0.00 0.00 0.00 21 1007.9
20260503191332 93 181 2.0 10.0 0.00 0.00 0.00 21 1008.1
20260503190351 92 124 6.0 10.0 0.00 0.00 0.00 20 1008.3
20260503185328 91 180 4.0 12.0 0.00 0.00 0.00 21 1008.4
20260503184349 91 171 6.0 14.0 0.00 0.00 0.00 21 1008.7
20260503183331 90 178 5.0 10.0 0.00 0.00 0.00 21 1008.8
20260503182331 90 155 4.0 11.0 0.00 0.00 0.00 23 1008.9
20260503181329 89 164 3.0 10.0 0.00 0.00 0.00 23 1009.1
20260503180329 88 161 4.0 9.0 0.00 0.00 0.00 24 1009.3
20260503175328 88 165 0.0 9.0 0.00 0.00 0.00 24 1009.5
20260503174332 88 179 7.0 14.0 0.00 0.00 0.00 24 1009.6
20260503173332 87 146 2.0 9.0 0.00 0.00 0.00 24 1009.6
20260503172333 87 186 2.0 12.0 0.00 0.00 0.00 25 1009.6
20260503171330 87 54 0.0 10.0 0.00 0.00 0.00 25 1009.7
20260503170332 86 112 5.0 11.0 0.00 0.00 0.00 25 1009.7
20260503150339 80 64 1.0 11.0 0.00 0.00 0.00 31 1009.7
20260503131326 76 65 1.0 5.0 0.00 0.00 0.00 32 1008.9
20260503130329 77 124 1.0 6.0 0.00 0.00 0.00 32 1008.8
20260503110340 78 75 1.0 5.0 0.00 0.00 0.00 29 1008.5
20260503090338 78 69 1.0 4.0 0.00 0.00 0.00 24 1008.5
20260503081335 78 67 0.0 0.0 0.00 0.00 0.00 24 1008.8
20260503080333 78 67 0.0 0.0 0.00 0.00 0.00 24 1008.8
20260503072334 79 67 0.0 0.0 0.00 0.00 0.00 23 1009.0
20260503071333 79 95 0.0 1.0 0.00 0.00 0.00 23 1009.0
20260503070350 79 116 0.0 0.0 0.00 0.00 0.00 23 1009.1
20260503060330 77 197 0.0 0.0 0.00 0.00 0.00 30 1008.4
20260503054348 78 204 0.0 0.0 0.00 0.00 0.00 31 1008.4
20260503053345 78 204 0.0 0.0 0.00 0.00 0.00 29 1008.3
20260503052403 78 205 0.0 0.0 0.00 0.00 0.00 28 1008.2
20260503051344 79 205 0.0 0.0 0.00 0.00 0.00 28 1008.4
20260503050342 79 204 0.0 0.0 0.00 0.00 0.00 28 1008.4
20260503045341 79 102 0.0 0.0 0.00 0.00 0.00 28 1008.3
20260503044339 80 94 0.0 0.0 0.00 0.00 0.00 26 1008.2
20260503043335 80 94 0.0 0.0 0.00 0.00 0.00 26 1008.1
20260503042358 81 94 0.0 0.0 0.00 0.00 0.00 25 1008.0
20260503041335 82 95 0.0 0.0 0.00 0.00 0.00 24 1007.9
20260503040354 83 95 0.0 0.0 0.00 0.00 0.00 22 1007.7
20260503035332 83 95 0.0 0.0 0.00 0.00 0.00 22 1007.7
20260503034330 84 95 0.0 0.0 0.00 0.00 0.00 20 1007.5
20260503033334 85 95 0.0 0.0 0.00 0.00 0.00 20 1007.5
20260503032331 85 95 0.0 0.0 0.00 0.00 0.00 18 1007.3
20260503031329 86 130 0.0 0.0 0.00 0.00 0.00 17 1007.1
20260503030328 86 130 0.0 0.0 0.00 0.00 0.00 17 1007.2
20260503025352 87 131 0.0 0.0 0.00 0.00 0.00 16 1007.3
20260503024329 88 131 0.0 0.0 0.00 0.00 0.00 16 1007.1
20260503023328 88 136 0.0 1.0 0.00 0.00 0.00 15 1007.1
20260503022326 89 144 0.0 0.0 0.00 0.00 0.00 15 1007.0
20260503021345 89 144 0.0 2.0 0.00 0.00 0.00 14 1007.0
20260503020327 89 162 0.0 4.0 0.00 0.00 0.00 14 1007.0
20260503015407 90 101 3.0 7.0 0.00 0.00 0.00 14 1007.0
20260503014403 90 105 0.0 3.0 0.00 0.00 0.00 13 1007.1
20260503013341 91 145 0.0 6.0 0.00 0.00 0.00 14 1007.2
20260503012340 91 105 1.0 7.0 0.00 0.00 0.00 14 1007.3
20260503011404 91 175 3.0 8.0 0.00 0.00 0.00 14 1007.3
20260503010341 92 163 1.0 7.0 0.00 0.00 0.00 13 1007.4
20260503005342 91 64 1.0 7.0 0.00 0.00 0.00 14 1007.4
20260503004340 91 9 0.0 9.0 0.00 0.00 0.00 13 1007.4
20260503003339 92 48 0.0 5.0 0.00 0.00 0.00 13 1007.5
20260503002344 92 355 3.0 8.0 0.00 0.00 0.00 13 1007.5
20260503001342 93 93 0.0 6.0 0.00 0.00 0.00 13 1007.6
20260503000341 94 65 1.0 10.0 0.00 0.00 0.00 13 1007.6
20260502235402 94 161 1.0 5.0 0.00 0.00 0.00 13 1007.5
20260502234346 94 119 1.0 7.0 0.00 0.00 0.00 13 1007.6
20260502233334 95 63 0.0 0.0 0.00 0.00 0.00 13 1007.5
20260502232341 95 209 0.0 0.0 0.00 0.00 0.00 12 1007.6
20260502231348 94 267 0.0 0.0 0.00 0.00 0.00 13 1007.7
20260502230339 94 61 1.0 6.0 0.00 0.00 0.00 12 1007.8
20260502225406 94 59 0.0 6.0 0.00 0.00 0.00 13 1007.8
20260502224406 94 175 0.0 8.0 0.00 0.00 0.00 13 1008.1
20260502223332 93 141 0.0 8.0 0.00 0.00 0.00 14 1008.2
20260502222340 93 116 0.0 7.0 0.00 0.00 0.00 14 1008.3
20260502221331 93 182 6.0 16.0 0.00 0.00 0.00 14 1008.5
20260502220335 94 171 6.0 11.0 0.00 0.00 0.00 14 1008.6
20260502215335 93 178 7.0 11.0 0.00 0.00 0.00 14 1008.7
20260502214334 92 236 3.0 11.0 0.00 0.00 0.00 15 1008.9
20260502213336 92 23 1.0 8.0 0.00 0.00 0.00 16 1009.0
20260502212334 92 83 0.0 6.0 0.00 0.00 0.00 16 1009.2
20260502211336 91 175 4.0 8.0 0.00 0.00 0.00 17 1009.3
20260502210336 91 65 0.0 6.0 0.00 0.00 0.00 17 1009.5
20260502205335 91 189 1.0 7.0 0.00 0.00 0.00 17 1009.6
20260502204338 91 109 1.0 7.0 0.00 0.00 0.00 16 1009.8
20260502203357 91 168 1.0 8.0 0.00 0.00 0.00 17 1009.9